Location: Jetmore
(38.0845°N, 99.8935°W)
Time: 21:38:00
(UTC+00:00)

CZ-4B R/B - Pass Details

Date: 29 October 2020
Orbit: 489 x 649 km, 97.9° (Epoch: 30 November)

Event Time Altitude Azimuth Distance (km) Brightness Sun altitude
Rises 12:24:37 0° 2° (N) 2,772 6.3 -8.1°
Reaches altitude 10° 12:26:51 10° 353° (N) 1,898 5.4 -7.7°
Maximum altitude 12:30:35 34° 288° (WNW) 987 3.6 -7.0°
Drops below altitude 10° 12:34:27 10° 223° (SW) 1,969 5.3 -6.3°
Sets 12:36:49 0° 214° (SW) 2,893 6.3 -5.8°
